Wind_Speed
8 8 8 10 11 12 13 15 15 15 19 24 26 27 26 26 25 27 30 34 38 38 35 40 40 40 34 35 31 40 42 34 20 18 16 25 27 32 29 30 27 26 32 26 23
8 8 6 7 8 9 11 13 14 15 16 21 24 23 20 19 25 29 29 34 41 40 34 39 39 37 33 34 35 43 43 42 29 32 37 25 33 37 30 30 30 30 31 30 27
9 8 7 6 7 8 10 11 12 14 14 15 18 17 17 18 20 22 30 30 36 39 33 36 39 36 33 30 31 39 32 48 30 45 38 38 34 37 34 32 29 35 37 27 26
9 8 8 7 7 9 10 10 11 11 12 12 13 13 13 14 17 17 27 27 31 36 30 33 34 32 29 28 27 27 29 24 43 42 46 42 42 42 39 34 41 38 31 30 28
9 9 9 9 9 10 11 10 9 10 10 10 10 10 12 10 11 14 22 24 29 32 28 30 33 30 28 26 25 24 26 25 21 21 29 23 48 32 44 34 40 27 30 31 31
10 10 9 10 10 11 11 10 9 9 8 8 8 7 9 8 6 12 20 21 26 30 26 29 33 33 27 28 21 26 24 22 24 23 29 25 21 18 24 26 30 31 29 32 34
11 10 9 9 9 10 10 10 9 8 7 6 6 4 4 8 7 9 19 21 23 25 24 26 31 28 29 23 24 23 23 24 27 27 31 29 26 25 31 30 30 32 34 36 36
12 9 9 8 8 8 9 9 9 8 6 5 4 3 3 6 11 12 15 21 24 25 24 25 33 32 27 27 20 21 23 21 25 28 28 28 25 35 32 28 30 34 36 37 38
9 8 7 7 7 8 8 8 8 7 6 5 3 2 1 4 6 13 16 17 22 25 26 27 36 34 30 25 21 22 22 21 29 32 28 27 27 39 31 31 33 36 38 40 42
9 8 7 6 7 8 7 7 7 7 6 5 3 2 0 1 5 8 12 17 18 23 25 27 38 34 31 28 19 17 22 24 27 34 29 30 31 36 38 37 35 40 41 43 45
9 9 8 8 8 7 7 7 6 5 5 4 4 3 1 1 4 6 7 10 16 22 22 27 35 31 23 38 32 26 30 30 28 40 35 36 40 41 41 43 40 41 43 43 45
9 9 9 9 9 8 7 7 5 4 4 4 3 3 3 1 1 4 6 9 11 13 18 19 25 42 36 34 33 33 32 34 40 46 45 39 42 41 39 41 40 38 38 37 36
10 10 10 9 8 8 6 6 6 6 6 5 4 4 2 2 2 3 4 7 11 15 19 23 32 27 31 35 38 39 41 43 46 45 43 41 38 34 40 35 36 33 34 35 36
11 10 11 11 9 7 5 5 6 7 6 6 6 4 5 5 5 5 6 7 9 12 16 24 24 25 27 31 33 31 42 35 37 36 32 38 35 30 35 44 34 35 35 38 39
12 12 11 10 10 8 7 7 6 6 7 8 9 8 9 9 9 8 9 10 12 13 14 25 19 21 22 29 23 30 28 30 30 33 34 31 33 19 25 35 45 39 37 39 40
14 13 12 12 11 10 9 8 7 7 7 10 11 10 11 13 14 13 11 13 14 15 17 21 21 21 25 24 26 28 28 29 31 32 34 23 33 14 15 31 28 44 46 40 39
16 15 14 13 14 12 11 10 8 7 11 11 13 13 14 16 16 15 14 12 12 11 16 17 19 21 21 23 25 25 26 21 14 13 11 28 31 22 24 42 38 35 41 47 41
16 16 16 15 15 14 13 12 11 12 14 15 15 15 15 14 14 14 12 14 10 8 11 9 17 10 13 14 17 16 17 17 15 13 19 23 24 25 35 36 38 37 37 40 47
17 17 17 16 15 14 12 12 14 15 16 15 15 14 16 14 13 13 12 13 13 11 11 12 16 14 14 14 14 19 15 20 23 24 26 22 20 18 30 41 51 48 43 44 48
16 16 17 16 14 14 13 15 15 15 14 13 12 10 13 13 12 12 16 14 13 13 13 14 16 16 17 17 20 19 23 23 26 29 30 23 24 22 28 35 51 56 58 58 55
19 17 17 16 15 14 14 15 14 12 10 9 9 10 10 11 12 13 16 14 14 14 14 15 16 21 18 22 22 27 26 31 33 31 35 39 32 26 38 42 48 55 50 55 63
20 19 18 17 14 14 14 12 11 9 8 9 10 11 11 12 13 15 17 16 17 17 17 18 21 22 22 28 27 27 26 28 34 36 38 38 42 35 40 36 35 42 49 60 66
25 21 17 16 16 15 13 10 9 7 7 8 10 12 13 14 15 17 18 16 18 18 20 20 22 23 23 30 33 30 29 30 34 37 35 39 37 38 40 44 50 55 61 63 57
24 20 17 17 17 15 13 11 9 9 10 11 12 14 15 16 17 19 20 16 18 18 20 22 23 25 25 25 30 33 32 32 34 39 40 42 43 44 44 46 50 58 56 55 57
21 18 17 17 17 16 15 13 12 11 13 14 15 16 19 20 21 22 22 24 23 22 24 25 25 28 26 29 28 28 29 33 36 39 43 44 46 44 43 51 48 51 54 57 59
17 17 18 18 18 17 16 14 14 15 17 18 20 22 25 23 22 24 24 26 26 26 26 26 27 27 23 29 30 31 30 34 38 38 41 44 43 42 45 46 51 53 56 59 59
16 19 19 19 19 18 17 17 17 17 18 20 23 23 20 19 20 22 23 23 23 24 27 28 28 27 25 32 33 35 35 36 38 39 42 42 39 39 44 49 51 53 55 56 54
Wind_Direction
306 300 290 289 292 290 283 279 283 288 266 256 259 265 267 261 247 237 233 236 233 224 226 225 226 228 226 235 226 215 204 205 202 235 224 251 223 230 233 243 240 243 248 260 260
314 312 308 307 307 307 302 292 285 290 290 266 266 271 269 260 253 253 243 231 223 218 219 222 225 227 229 236 241 233 215 205 210 211 212 223 221 234 230 239 248 253 257 261 269
317 307 304 316 319 327 323 312 299 289 299 284 275 274 271 273 263 244 225 223 213 213 215 219 223 225 228 239 250 241 223 217 215 220 223 232 231 234 234 238 247 251 254 265 272
322 303 288 303 320 333 338 329 319 304 304 296 280 276 266 276 273 238 214 214 207 208 210 216 219 224 229 236 246 250 260 265 220 228 222 226 233 233 233 233 244 250 261 263 262
329 316 289 285 303 320 334 342 328 323 302 305 288 282 259 274 276 219 210 205 201 202 207 213 215 219 223 230 239 245 253 258 251 270 261 267 237 247 235 232 243 250 255 262 266
333 325 315 292 289 308 323 337 342 329 320 309 303 286 266 243 256 200 194 187 190 197 205 213 211 214 216 227 236 244 246 253 259 255 262 264 271 243 248 251 250 258 264 267 269
322 323 321 317 297 297 312 327 340 345 331 314 316 300 271 216 201 193 193 188 189 196 208 217 208 209 218 229 235 252 254 253 245 248 251 255 251 258 256 249 253 260 264 267 268
318 312 320 320 319 307 308 321 334 354 347 337 310 319 232 216 201 205 199 195 196 206 217 218 202 211 216 231 240 254 257 261 272 245 249 249 255 261 259 259 263 261 260 262 264
334 323 323 331 331 324 318 310 324 341 0 346 342 314 274 211 225 209 210 216 223 220 218 218 204 214 214 230 241 250 255 265 268 261 259 253 257 267 266 266 266 263 262 262 263
349 341 331 336 350 352 342 325 321 329 346 358 344 350 289 184 189 205 210 221 225 224 227 226 211 222 231 234 240 251 271 253 240 272 249 261 263 266 272 272 271 269 266 265 263
349 345 344 337 341 346 351 353 343 346 349 8 20 20 13 158 181 191 200 199 216 224 228 224 216 231 244 234 235 258 259 263 260 271 272 273 274 273 276 275 274 270 269 267 265
341 337 334 335 337 342 337 333 342 355 354 359 12 358 11 54 161 202 197 204 208 210 217 220 223 228 234 242 253 260 263 265 267 268 273 282 278 279 275 275 275 275 271 270 270
325 330 328 330 334 336 335 343 342 333 339 337 344 335 306 259 221 194 199 209 213 216 217 216 230 230 241 247 254 259 261 262 266 273 278 277 276 279 278 277 279 278 278 277 277
334 312 317 317 319 328 339 350 355 356 356 353 336 321 294 280 263 260 248 232 225 224 220 227 240 241 242 246 248 251 256 260 264 267 269 276 280 281 291 284 277 281 281 280 281
331 323 304 304 305 306 307 325 332 331 346 330 328 323 313 300 287 275 261 250 248 242 236 244 243 244 245 245 252 251 263 262 265 268 271 274 284 292 285 289 285 279 283 283 282
324 318 308 293 293 294 295 303 310 306 307 307 310 309 305 298 297 294 281 272 266 261 256 262 258 256 257 260 260 263 266 271 274 275 281 283 274 273 250 272 275 291 287 283 281
317 314 308 301 288 289 290 291 286 282 296 298 301 298 297 304 304 304 302 291 281 279 272 270 269 266 268 270 268 270 273 277 266 287 303 273 275 277 252 267 281 280 286 288 281
300 301 302 299 293 284 281 283 278 279 282 290 294 295 299 304 303 306 303 301 294 284 277 282 304 282 275 272 273 282 279 273 272 258 235 256 290 290 283 287 283 280 277 282 289
291 288 294 298 289 279 275 273 265 277 283 287 290 294 297 295 294 296 292 292 295 294 284 285 278 290 288 285 284 287 284 287 284 283 284 285 290 296 290 293 287 286 284 279 282
293 295 293 291 282 272 269 270 274 278 281 283 280 281 278 291 288 285 288 287 288 288 285 285 283 286 286 288 285 287 291 290 291 292 288 282 274 287 265 268 280 287 292 289 285
283 291 297 283 271 266 262 267 268 271 275 273 272 271 274 279 278 277 279 279 282 282 281 280 280 286 285 286 285 295 296 295 288 284 287 286 285 275 266 263 271 281 284 284 286
287 287 287 280 262 256 252 255 260 267 273 276 277 279 278 279 278 278 279 282 281 282 282 283 284 287 291 290 294 291 290 288 285 287 282 287 288 291 283 287 281 283 283 284 288
286 282 276 265 246 244 242 243 247 256 272 287 289 288 288 290 291 289 289 293 289 288 288 288 288 289 291 297 290 288 289 285 284 284 290 289 293 291 280 274 277 278 279 286 288
278 266 263 243 236 235 230 229 240 259 281 294 300 300 298 298 294 295 294 293 290 291 290 291 291 290 294 289 288 293 297 295 294 295 297 296 299 295 292 286 283 288 292 289 286
261 250 245 235 229 227 229 236 248 266 283 291 293 299 303 298 291 290 292 294 290 290 289 289 289 290 296 294 293 295 297 295 295 297 297 302 298 296 289 288 295 293 293 292 292
246 234 227 224 223 225 233 240 254 274 286 287 290 293 296 290 285 286 287 287 289 291 288 290 290 292 296 293 298 299 300 298 295 297 296 295 292 284 290 294 295 298 295 293 295
231 231 227 226 229 235 241 253 267 280 286 290 293 295 296 293 287 284 284 285 287 289 292 293 291 292 299 299 306 304 306 302 302 299 299 294 289 290 294 295 297 296 294 295 297
Height
5839 5838 5837 5836 5835 5834 5833 5832 5831 5830 5829 5829 5828 5827 5826 5825 5825 5826 5827 5832 5840 5844 5849 5854 5859 5864 5871 5873 5877 5878 5886 5890 5899 5904 5905 5898 5902 5902 5906 5907 5909 5910 5907 5909 5910
5837 5836 5835 5834 5833 5832 5830 5829 5828 5826 5825 5824 5823 5822 5821 5820 5818 5817 5822 5826 5832 5839 5844 5849 5855 5860 5866 5869 5873 5874 5877 5884 5887 5886 5888 5890 5895 5895 5901 5902 5903 5903 5902 5903 5905
5836 5835 5834 5833 5832 5830 5829 5827 5825 5823 5822 5820 5819 5818 5817 5815 5813 5811 5815 5820 5826 5834 5840 5846 5852 5859 5863 5866 5866 5867 5869 5875 5876 5879 5883 5887 5890 5892 5895 5897 5899 5895 5894 5899 5901
5835 5834 5833 5832 5830 5829 5827 5825 5823 5821 5819 5817 5815 5814 5813 5811 5811 5809 5813 5817 5824 5831 5838 5843 5849 5854 5859 5863 5865 5865 5866 5867 5873 5877 5878 5881 5884 5884 5888 5892 5887 5888 5892 5894 5896
5834 5832 5831 5830 5829 5828 5826 5823 5821 5819 5817 5815 5813 5812 5811 5810 5808 5808 5811 5816 5822 5829 5835 5841 5846 5852 5856 5859 5861 5864 5864 5866 5865 5869 5872 5875 5879 5880 5881 5882 5879 5887 5886 5887 5887
5834 5832 5830 5828 5827 5826 5824 5822 5820 5817 5815 5813 5812 5810 5809 5810 5809 5809 5812 5816 5821 5827 5833 5837 5842 5846 5852 5854 5858 5858 5861 5862 5864 5867 5866 5869 5872 5872 5876 5876 5878 5879 5880 5880 5880
5832 5830 5828 5827 5825 5824 5823 5821 5819 5816 5814 5812 5810 5809 5808 5810 5810 5811 5814 5817 5821 5826 5830 5834 5840 5846 5847 5852 5855 5857 5858 5860 5862 5864 5865 5866 5868 5867 5868 5870 5874 5872 5873 5873 5873
5830 5829 5827 5825 5824 5822 5821 5820 5818 5816 5813 5811 5810 5809 5808 5808 5810 5812 5815 5818 5821 5824 5828 5833 5838 5842 5847 5849 5853 5854 5855 5857 5857 5857 5860 5863 5866 5862 5863 5866 5866 5866 5867 5866 5866
5829 5827 5826 5824 5823 5821 5820 5819 5817 5815 5813 5811 5810 5809 5809 5808 5809 5811 5814 5818 5820 5823 5826 5831 5836 5839 5844 5848 5850 5852 5854 5854 5850 5852 5854 5857 5860 5849 5858 5858 5859 5859 5859 5858 5858
5829 5827 5825 5824 5822 5820 5819 5818 5816 5815 5814 5812 5811 5811 5809 5810 5809 5811 5813 5815 5819 5822 5825 5829 5833 5837 5841 5843 5848 5851 5851 5851 5851 5843 5850 5852 5853 5851 5850 5850 5852 5851 5851 5849 5849
5828 5826 5825 5823 5821 5820 5819 5817 5817 5816 5813 5813 5812 5811 5810 5810 5810 5811 5812 5814 5817 5821 5823 5827 5832 5837 5839 5835 5839 5845 5846 5846 5843 5838 5843 5844 5844 5845 5845 5840 5842 5841 5840 5840 5839
5828 5826 5824 5822 5821 5819 5818 5817 5816 5816 5814 5813 5812 5812 5811 5810 5811 5811 5813 5815 5817 5819 5823 5828 5830 5824 5832 5836 5837 5838 5839 5840 5836 5833 5834 5836 5836 5835 5834 5834 5832 5832 5831 5830 5828
5827 5825 5823 5822 5820 5818 5817 5816 5815 5814 5814 5813 5813 5812 5812 5812 5812 5812 5813 5814 5816 5818 5821 5823 5820 5827 5829 5830 5832 5832 5832 5831 5831 5831 5831 5830 5831 5827 5823 5825 5823 5822 5821 5820 5819
5825 5824 5822 5821 5821 5818 5817 5816 5815 5814 5814 5814 5812 5812 5811 5811 5812 5812 5812 5814 5814 5816 5818 5818 5820 5822 5823 5824 5826 5827 5821 5828 5826 5826 5827 5823 5823 5823 5814 5812 5816 5813 5813 5812 5810
5823 5822 5821 5819 5818 5817 5817 5815 5814 5813 5814 5814 5812 5811 5809 5810 5810 5810 5810 5811 5811 5813 5815 5812 5816 5817 5818 5816 5821 5818 5820 5819 5820 5819 5818 5821 5819 5820 5814 5809 5803 5806 5805 5802 5801
5821 5819 5818 5817 5816 5815 5814 5814 5814 5814 5812 5812 5810 5809 5808 5807 5807 5806 5807 5807 5808 5809 5809 5808 5810 5812 5811 5813 5813 5813 5813 5814 5812 5812 5812 5812 5812 5817 5811 5801 5799 5794 5793 5794 5791
5818 5817 5815 5814 5814 5813 5812 5812 5812 5811 5811 5810 5808 5807 5806 5805 5804 5804 5803 5803 5804 5805 5803 5804 5804 5804 5805 5805 5805 5806 5805 5807 5811 5811 5814 5804 5803 5804 5801 5793 5795 5793 5785 5779 5782
5814 5813 5812 5811 5810 5809 5809 5810 5809 5808 5807 5806 5805 5804 5804 5803 5802 5801 5800 5799 5800 5801 5800 5800 5799 5799 5799 5799 5799 5799 5800 5800 5800 5804 5805 5799 5799 5801 5789 5787 5784 5782 5782 5776 5767
5810 5809 5808 5807 5806 5806 5806 5806 5806 5804 5804 5803 5802 5802 5800 5800 5800 5798 5798 5797 5796 5797 5798 5797 5795 5795 5795 5795 5796 5794 5796 5795 5793 5794 5793 5797 5797 5797 5783 5773 5768 5767 5768 5766 5763
5806 5805 5804 5802 5802 5802 5802 5801 5800 5800 5800 5799 5799 5799 5798 5797 5797 5796 5793 5794 5793 5793 5793 5793 5792 5791 5791 5790 5789 5790 5789 5789 5787 5785 5784 5787 5786 5787 5777 5765 5756 5753 5751 5748 5747
5802 5801 5800 5798 5798 5798 5798 5796 5797 5797 5797 5797 5796 5795 5795 5794 5793 5792 5791 5791 5790 5790 5789 5788 5788 5787 5787 5785 5785 5783 5782 5779 5779 5779 5774 5772 5776 5773 5765 5760 5753 5745 5741 5732 5726
5796 5796 5794 5794 5795 5794 5793 5794 5794 5794 5794 5793 5792 5792 5791 5790 5789 5788 5787 5786 5786 5786 5785 5784 5783 5782 5782 5778 5777 5776 5776 5774 5769 5768 5765 5763 5760 5761 5751 5746 5739 5733 5725 5717 5711
5790 5789 5789 5789 5790 5789 5790 5790 5790 5790 5790 5790 5789 5788 5787 5786 5785 5783 5782 5782 5781 5780 5779 5778 5777 5776 5776 5771 5767 5768 5767 5765 5761 5756 5755 5750 5752 5747 5739 5731 5725 5716 5708 5704 5699
5782 5783 5783 5783 5784 5785 5786 5786 5786 5786 5786 5785 5785 5784 5783 5782 5780 5778 5777 5777 5775 5775 5773 5772 5771 5769 5769 5767 5763 5758 5757 5753 5749 5744 5743 5739 5736 5731 5725 5716 5706 5698 5694 5688 5682
5774 5775 5776 5778 5780 5781 5782 5783 5783 5783 5783 5782 5781 5780 5778 5777 5776 5773 5771 5769 5769 5769 5767 5765 5764 5760 5760 5756 5754 5751 5749 5745 5740 5736 5731 5727 5721 5717 5708 5699 5695 5687 5680 5672 5666
5768 5769 5771 5774 5776 5777 5778 5778 5779 5779 5778 5778 5776 5774 5772 5771 5770 5767 5766 5763 5762 5760 5758 5757 5755 5753 5753 5747 5746 5743 5741 5735 5731 5727 5721 5715 5711 5703 5698 5689 5682 5676 5666 5658 5650
5762 5764 5767 5769 5771 5773 5773 5774 5774 5773 5773 5772 5770 5768 5766 5764 5762 5761 5759 5758 5756 5754 5751 5749 5746 5745 5746 5739 5736 5733 5730 5725 5720 5715 5708 5702 5697 5692 5686 5679 5671 5663 5652 5643 5638